South Haven, MI

8:44 AM EST on January 16, 2018 (GMT -0500)
South Haven

Weather History for KLWA - November, 2012

Change the Weather History Date:

Thursday, November 1, 2012

  Actual Average (KBEH) Record (KBEH)
Temperature  
Mean Temperature 44 °F -  
Max Temperature 47 °F 59 °F 82 °F (1950)
Min Temperature 41 °F 42 °F 21 °F (1954)
Degree Days  
Heating Degree Days 21    
Moisture  
Dew Point 32 °F    
Average Humidity 63    
Maximum Humidity 84    
Minimum Humidity 47    
Precipitation  
Precipitation 0.00 in - - ()
Sea Level Pressure  
Sea Level Pressure 29.81 in    
Wind  
Wind Speed 10 mph (NW)    
Max Wind Speed 14 mph    
Max Gust Speed 22 mph    
Visibility 10 miles    
Events Rain    
Averages and records for this station are not official NWS values.
T = Trace of Precipitation, MM = Missing Value Source: NWS Daily Summary

Daily Weather History Graph

Daily Weather History Graph

Search for Another Location

Airport or City:

Trip Planner

Search our weather history database for the weather conditions in past years. The results will help you decide how hot, cold, wet, or windy it might be!

Date:

Astronomy

Nov. 01, 2012 Rise Set
Actual Time 8:18 AM EDT 6:37 PM EDT
Civil Twilight 7:49 AM EDT 7:06 PM EDT
Nautical Twilight 7:16 AM EDT 7:40 PM EDT
Astronomical Twilight 6:43 AM EDT 8:12 PM EDT
Moon 8:31 PM EDT (11/1) 10:53 AM EDT (11/1)
Length of Visible Light 11h 17m
Length of Day
10h 18m
Waning Gibbous, 93% of the Moon is Illuminated
Nov 1
Waning Gibbous
Nov 6
Last Quarter
Nov 13
New
Nov 20
First Quarter
Nov 28
Full

Hourly Weather History & Observations

Time (EDT) Temp. Windchill Dew Point Humidity Pressure Visibility Wind Dir Wind Speed Gust Speed Precip Events Conditions
12:15 AM 45.7 °F 40.6 °F 36.5 °F 70% 29.77 in 10.0 mi NNW 10.4 mph 18.4 mph N/A   Overcast
12:35 AM 45.7 °F 40.2 °F 36.7 °F 71% 29.77 in 10.0 mi NNW 11.5 mph 17.3 mph N/A   Overcast
1:15 AM 44.8 °F 39.9 °F 36.7 °F 73% 29.77 in 10.0 mi NNW 9.2 mph 18.4 mph N/A   Mostly Cloudy
1:35 AM 44.1 °F 38.6 °F 36.0 °F 73% 29.77 in 10.0 mi NNW 10.4 mph - N/A   Scattered Clouds
1:55 AM 43.9 °F 37.9 °F 34.9 °F 71% 29.77 in 10.0 mi NNW 11.5 mph 17.3 mph N/A   Clear
2:15 AM 43.7 °F 37.7 °F 31.3 °F 62% 29.77 in 10.0 mi NNW 11.5 mph 18.4 mph N/A   Clear
2:35 AM 43.5 °F 37.9 °F 31.6 °F 63% 29.77 in 10.0 mi NNW 10.4 mph 21.9 mph N/A   Clear
2:55 AM 42.8 °F 37.0 °F 32.0 °F 66% 29.77 in 10.0 mi NNW 10.4 mph 16.1 mph N/A   Clear
3:15 AM 42.8 °F 36.6 °F 32.2 °F 66% 29.77 in 10.0 mi NNW 11.5 mph 18.4 mph N/A   Clear
3:35 AM 42.1 °F 35.2 °F 32.2 °F 68% 29.78 in 10.0 mi NNW 12.7 mph 18.4 mph N/A   Clear
3:55 AM 41.9 °F 35.9 °F 32.9 °F 70% 29.77 in 10.0 mi NNW 10.4 mph 17.3 mph N/A   Clear
4:15 AM 41.9 °F 35.0 °F 33.6 °F 72% 29.77 in 10.0 mi NW 12.7 mph - N/A   Mostly Cloudy
4:35 AM 41.9 °F 36.3 °F 33.4 °F 72% 29.77 in 10.0 mi NW 9.2 mph 17.3 mph N/A   Mostly Cloudy
4:55 AM 42.3 °F 39.4 °F 35.1 °F 76% 29.77 in 10.0 mi NW 4.6 mph 17.3 mph N/A   Overcast
5:14 AM 42.4 °F 38.8 °F 35.8 °F 77% 29.77 in 10.0 mi NNW 5.8 mph - N/A   Overcast
5:35 AM 41.9 °F 36.9 °F 36.3 °F 81% 29.77 in 10.0 mi North 8.1 mph - N/A   Overcast
6:15 AM 42.6 °F 35.9 °F 34.7 °F 74% 29.78 in 10.0 mi NNW 12.7 mph 18.4 mph N/A   Overcast
6:35 AM 42.1 °F 40.2 °F 36.0 °F 79% 29.78 in 10.0 mi NNW 3.5 mph 17.3 mph N/A   Overcast
6:55 AM 42.3 °F 37.9 °F 35.4 °F 77% 29.78 in 10.0 mi NNW 6.9 mph 18.4 mph N/A   Overcast
7:15 AM 42.3 °F 36.8 °F 35.6 °F 77% 29.78 in 10.0 mi NNW 9.2 mph - N/A   Overcast
7:35 AM 41.9 °F 35.9 °F 35.6 °F 78% 29.79 in 10.0 mi NNW 10.4 mph - N/A   Mostly Cloudy
8:15 AM 41.9 °F 35.9 °F 35.1 °F 77% 29.79 in 10.0 mi NW 10.4 mph - N/A   Mostly Cloudy
8:35 AM 41.5 °F 35.9 °F 34.7 °F 77% 29.79 in 10.0 mi NW 9.2 mph 16.1 mph N/A   Scattered Clouds
8:55 AM 41.9 °F 36.3 °F 34.9 °F 76% 29.80 in 10.0 mi NW 9.2 mph - N/A   Scattered Clouds
9:35 AM 42.6 °F 37.8 °F 34.5 °F 73% 29.81 in 10.0 mi NW 8.1 mph 16.1 mph N/A   Mostly Cloudy
9:55 AM 44.6 °F 38.8 °F 34.7 °F 68% 29.82 in 10.0 mi NW 11.5 mph 18.4 mph N/A   Mostly Cloudy
10:15 AM 43.9 °F 37.9 °F 34.0 °F 68% 29.82 in 10.0 mi NW 11.5 mph - N/A   Overcast
10:35 AM 44.1 °F 37.4 °F 34.2 °F 68% 29.82 in 10.0 mi WNW 13.8 mph 18.4 mph N/A   Overcast
10:55 AM 44.6 °F 38.4 °F 33.4 °F 65% 29.82 in 10.0 mi NW 12.7 mph 21.9 mph N/A   Overcast
11:15 AM 45.1 °F 38.8 °F 33.3 °F 63% 29.82 in 10.0 mi WNW 13.8 mph 18.4 mph N/A   Overcast
11:35 AM 45.7 °F 40.2 °F 32.4 °F 60% 29.82 in 10.0 mi WNW 11.5 mph 19.6 mph N/A   Scattered Clouds
11:55 AM 46.8 °F - 32.7 °F 58% 29.83 in 10.0 mi NW 9.2 mph 17.3 mph N/A   Clear
12:15 PM 46.4 °F 40.4 °F 31.8 °F 57% 29.82 in 10.0 mi NW 13.8 mph 20.7 mph N/A   Mostly Cloudy
12:35 PM 45.7 °F 40.2 °F 33.1 °F 61% 29.83 in 10.0 mi NW 11.5 mph 19.6 mph N/A   Overcast
12:55 PM 45.9 °F 40.4 °F 32.4 °F 59% 29.82 in 10.0 mi NW 11.5 mph 18.4 mph N/A   Overcast
1:15 PM 45.9 °F 40.8 °F 32.0 °F 58% 29.82 in 10.0 mi NW 10.4 mph 18.4 mph N/A   Overcast
1:35 PM 46.6 °F - 32.4 °F 58% 29.81 in 10.0 mi WNW 11.5 mph - N/A   Overcast
1:55 PM 46.6 °F - 33.3 °F 60% 29.81 in 10.0 mi WNW 9.2 mph 16.1 mph N/A   Mostly Cloudy
2:15 PM 47.5 °F - 31.3 °F 53% 29.81 in 10.0 mi NW 11.5 mph 18.4 mph N/A   Scattered Clouds
2:35 PM 47.7 °F - 30.2 °F 51% 29.80 in 10.0 mi WNW 10.4 mph 18.4 mph N/A   Scattered Clouds
3:15 PM 47.5 °F - 30.4 °F 52% 29.79 in 10.0 mi NW 12.7 mph 18.4 mph N/A   Mostly Cloudy
3:35 PM 46.4 °F 40.7 °F 30.4 °F 54% 29.80 in 10.0 mi NW 12.7 mph 16.1 mph N/A   Mostly Cloudy
4:35 PM 45.5 °F 39.9 °F 27.0 °F 48% 29.80 in 10.0 mi NNW 11.5 mph - N/A   Overcast
4:55 PM 45.7 °F 41.0 °F 27.1 °F 48% 29.80 in 10.0 mi NW 9.2 mph - N/A   Overcast
5:15 PM 45.5 °F 41.3 °F 27.0 °F 48% 29.81 in 10.0 mi NW 8.1 mph - N/A   Overcast
5:35 PM 45.5 °F 40.8 °F 27.9 °F 50% 29.81 in 10.0 mi NW 9.2 mph - N/A   Overcast
5:55 PM 45.5 °F 42.5 °F 26.2 °F 47% 29.82 in 10.0 mi WNW 5.8 mph - N/A   Overcast
6:15 PM 45.7 °F 42.0 °F 26.4 °F 47% 29.82 in 10.0 mi NW 6.9 mph - N/A   Overcast
6:35 PM 45.7 °F 42.0 °F 26.8 °F 48% 29.82 in 10.0 mi NW 6.9 mph - N/A   Overcast
6:55 PM 45.9 °F 42.9 °F 27.1 °F 48% 29.82 in 10.0 mi NW 5.8 mph - N/A   Overcast
7:15 PM 46.0 °F 41.9 °F 28.4 °F 50% 29.82 in 10.0 mi NNW 8.1 mph - N/A   Overcast
7:35 PM 45.9 °F 41.2 °F 28.2 °F 50% 29.83 in 10.0 mi NNW 9.2 mph - N/A   Overcast
7:55 PM 45.7 °F 41.5 °F 28.6 °F 51% 29.83 in 10.0 mi NNW 8.1 mph - N/A   Overcast
8:15 PM 45.5 °F 43.2 °F 30.2 °F 55% 29.84 in 10.0 mi North 4.6 mph - N/A   Overcast
8:35 PM 45.3 °F 44.0 °F 28.9 °F 53% 29.83 in 10.0 mi NNW 3.5 mph - N/A   Overcast
8:55 PM 45.5 °F 42.5 °F 28.8 °F 52% 29.84 in 10.0 mi NNW 5.8 mph - N/A   Overcast
9:15 PM 45.5 °F 43.2 °F 28.4 °F 51% 29.84 in 10.0 mi NNW 4.6 mph - N/A   Overcast
9:35 PM 45.7 °F 42.0 °F 28.6 °F 51% 29.84 in 10.0 mi NNW 6.9 mph - N/A   Overcast
9:55 PM 45.9 °F 41.7 °F 28.9 °F 52% 29.85 in 10.0 mi NW 8.1 mph - N/A   Overcast
10:15 PM 45.9 °F 42.3 °F 30.7 °F 56% 29.85 in 10.0 mi NW 6.9 mph - N/A   Overcast
10:35 PM 46.0 °F 43.1 °F 32.9 °F 60% 29.84 in 10.0 mi NNW 5.8 mph - N/A   Overcast
10:55 PM 46.4 °F 43.5 °F 35.1 °F 65% 29.84 in 10.0 mi NW 5.8 mph - N/A   Overcast
11:15 PM 45.1 °F 40.3 °F 39.2 °F 80% 29.84 in 10.0 mi NNW 9.2 mph - N/A Rain Light Rain
11:35 PM 45.3 °F 39.7 °F 36.9 °F 72% 29.84 in 10.0 mi North 11.5 mph 16.1 mph N/A   Overcast
11:55 PM 43.0 °F 36.0 °F 38.3 °F 84% 29.85 in 7.0 mi North 13.8 mph 19.6 mph N/A Rain Rain